Time,TemperatureF,DewpointF,PressureIn,WindDirection,WindDirectionDegrees,WindSpeedMPH,WindSpeedGustMPH,Humidity,HourlyPrecipIn,Conditions,Clouds,dailyrainin,SoftwareType,DateUTC
2013-05-02 00:01:00,63.3,-99.9,30.32,ESE,113,0.0,0.0,-999,0.00,,,-99.99,perl,2013-05-02 04:01:00,
2013-05-02 00:03:00,63.1,-99.9,30.32,ESE,114,0.0,0.0,-999,0.00,,,-99.99,perl,2013-05-02 04:03:00,
2013-05-02 00:04:00,63.1,-99.9,30.32,ESE,113,0.0,0.0,-999,0.00,,,-99.99,perl,2013-05-02 04:04:00,
2013-05-02 00:05:00,63.0,-99.9,30.32,ESE,114,0.0,0.0,-999,0.00,,,-99.99,perl,2013-05-02 04:05:00,
2013-05-02 00:06:00,63.0,-99.9,30.32,ESE,113,0.0,0.0,-999,0.00,,,-99.99,perl,2013-05-02 04:06:00,
2013-05-02 00:11:00,62.6,-99.9,30.32,ESE,113,0.0,0.0,-999,0.00,,,-99.99,perl,2013-05-02 04:11:00,
2013-05-02 00:16:00,62.2,-99.9,30.32,ESE,114,0.0,0.0,-999,0.00,,,-99.99,perl,2013-05-02 04:16:00,
2013-05-02 00:21:00,61.9,-99.9,30.32,ESE,114,0.0,0.0,-999,0.00,,,-99.99,perl,2013-05-02 04:21:00,
2013-05-02 00:26:00,61.7,-99.9,30.32,ESE,118,0.0,0.0,-999,0.00,,,-99.99,perl,2013-05-02 04:26:00,
2013-05-02 00:31:00,62.1,-99.9,30.32,SE,141,0.0,0.0,-999,0.00,,,-99.99,perl,2013-05-02 04:31:00,
2013-05-02 00:36:00,62.2,-99.9,30.32,SE,141,0.0,0.0,-999,0.00,,,-99.99,perl,2013-05-02 04:36:00,
2013-05-02 00:41:00,62.4,-99.9,30.32,SSE,162,0.0,0.0,-999,0.00,,,-99.99,perl,2013-05-02 04:41:00,
2013-05-02 00:46:00,62.2,-99.9,30.32,SSE,164,0.0,0.0,-999,0.00,,,-99.99,perl,2013-05-02 04:46:00,
2013-05-02 00:51:00,62.2,-99.9,30.32,South,170,0.0,0.0,-999,0.00,,,-99.99,perl,2013-05-02 04:51:00,
2013-05-02 00:56:00,61.9,-99.9,30.32,South,173,0.0,0.0,-999,0.00,,,-99.99,perl,2013-05-02 04:56:00,
2013-05-02 01:01:00,61.7,-99.9,30.32,South,172,0.0,0.0,-999,0.00,,,-99.99,perl,2013-05-02 05:01:00,
2013-05-02 01:06:00,61.3,-99.9,30.32,South,174,0.0,0.0,-999,0.00,,,-99.99,perl,2013-05-02 05:06:00,
2013-05-02 01:11:00,61.3,-99.9,30.32,South,175,0.0,0.0,-999,0.00,,,-99.99,perl,2013-05-02 05:11:00,
2013-05-02 01:16:00,61.3,-99.9,30.32,South,175,0.0,0.0,-999,0.00,,,-99.99,perl,2013-05-02 05:16:00,
2013-05-02 01:21:00,61.2,-99.9,30.32,South,175,0.0,0.0,-999,0.00,,,-99.99,perl,2013-05-02 05:21:00,
2013-05-02 01:26:00,61.2,-99.9,30.32,South,175,0.0,0.0,-999,0.00,,,-99.99,perl,2013-05-02 05:26:00,
2013-05-02 01:31:00,61.0,-99.9,30.32,South,175,0.0,0.0,-999,0.00,,,-99.99,perl,2013-05-02 05:31:00,
2013-05-02 01:36:00,61.0,-99.9,30.32,South,174,0.0,0.0,-999,0.00,,,-99.99,perl,2013-05-02 05:36:00,
2013-05-02 01:41:00,61.0,-99.9,30.32,South,176,0.0,0.0,-999,0.00,,,-99.99,perl,2013-05-02 05:41:00,
2013-05-02 01:46:00,60.8,-99.9,30.32,SSE,166,0.0,0.0,-999,0.00,,,-99.99,perl,2013-05-02 05:46:00,
2013-05-02 01:51:00,60.6,-99.9,30.32,South,169,0.0,0.0,-999,0.00,,,-99.99,perl,2013-05-02 05:51:00,
2013-05-02 01:56:00,60.4,-99.9,30.32,South,169,0.0,0.0,-999,0.00,,,-99.99,perl,2013-05-02 05:56:00,
2013-05-02 02:01:00,60.4,-99.9,30.32,South,169,0.0,0.0,-999,0.00,,,-99.99,perl,2013-05-02 06:01:00,
2013-05-02 02:06:00,60.3,-99.9,30.32,South,169,0.0,0.0,-999,0.00,,,-99.99,perl,2013-05-02 06:06:00,
2013-05-02 02:11:00,60.3,-99.9,30.32,South,169,0.0,0.0,-999,0.00,,,-99.99,perl,2013-05-02 06:11:00,
2013-05-02 02:16:00,60.1,-99.9,30.29,South,169,0.0,0.0,-999,0.00,,,-99.99,perl,2013-05-02 06:16:00,
2013-05-02 02:21:00,59.9,-99.9,30.29,South,169,0.0,0.0,-999,0.00,,,-99.99,perl,2013-05-02 06:21:00,
2013-05-02 02:27:00,59.9,-99.9,30.29,South,170,0.0,0.0,-999,0.00,,,-99.99,perl,2013-05-02 06:27:00,
2013-05-02 02:32:00,59.7,-99.9,30.29,South,169,0.0,0.0,-999,0.00,,,-99.99,perl,2013-05-02 06:32:00,
2013-05-02 02:37:00,59.7,-99.9,30.29,South,170,0.0,0.0,-999,0.00,,,-99.99,perl,2013-05-02 06:37:00,
2013-05-02 02:42:00,59.7,-99.9,30.29,South,169,0.0,0.0,-999,0.00,,,-99.99,perl,2013-05-02 06:42:00,
2013-05-02 02:47:00,59.5,-99.9,30.29,South,169,0.0,0.0,-999,0.00,,,-99.99,perl,2013-05-02 06:47:00,
2013-05-02 02:52:00,59.4,-99.9,30.29,South,169,0.0,0.0,-999,0.00,,,-99.99,perl,2013-05-02 06:52:00,
2013-05-02 02:57:00,59.2,-99.9,30.29,South,169,0.0,0.0,-999,0.00,,,-99.99,perl,2013-05-02 06:57:00,
2013-05-02 03:02:00,59.0,-99.9,30.29,South,169,0.0,0.0,-999,0.00,,,-99.99,perl,2013-05-02 07:02:00,
2013-05-02 03:07:00,58.8,-99.9,30.29,South,169,0.0,0.0,-999,0.00,,,-99.99,perl,2013-05-02 07:07:00,
2013-05-02 03:12:00,58.5,-99.9,30.29,South,170,0.0,0.0,-999,0.00,,,-99.99,perl,2013-05-02 07:12:00,
2013-05-02 03:17:00,58.3,-99.9,30.29,South,170,0.0,0.0,-999,0.00,,,-99.99,perl,2013-05-02 07:17:00,
2013-05-02 03:22:00,58.1,-99.9,30.29,South,169,0.0,0.0,-999,0.00,,,-99.99,perl,2013-05-02 07:22:00,
2013-05-02 03:27:00,58.1,-99.9,30.29,South,169,0.0,0.0,-999,0.00,,,-99.99,perl,2013-05-02 07:27:00,
2013-05-02 03:32:00,57.9,-99.9,30.32,South,169,0.0,0.0,-999,0.00,,,-99.99,perl,2013-05-02 07:32:00,
2013-05-02 03:37:00,57.6,-99.9,30.32,South,170,0.0,0.0,-999,0.00,,,-99.99,perl,2013-05-02 07:37:00,
2013-05-02 03:42:00,57.4,-99.9,30.32,South,169,0.0,0.0,-999,0.00,,,-99.99,perl,2013-05-02 07:42:00,
2013-05-02 03:47:00,57.2,-99.9,30.32,South,169,0.0,0.0,-999,0.00,,,-99.99,perl,2013-05-02 07:47:00,
2013-05-02 03:52:00,57.2,-99.9,30.32,South,170,0.0,0.0,-999,0.00,,,-99.99,perl,2013-05-02 07:52:00,
2013-05-02 03:57:00,57.4,-99.9,30.32,South,170,0.0,0.0,-999,0.00,,,-99.99,perl,2013-05-02 07:57:00,
2013-05-02 04:02:00,57.6,-99.9,30.32,South,169,0.0,0.0,-999,0.00,,,-99.99,perl,2013-05-02 08:02:00,
2013-05-02 04:07:00,57.6,-99.9,30.32,South,169,0.0,0.0,-999,0.00,,,-99.99,perl,2013-05-02 08:07:00,
2013-05-02 04:12:00,57.4,-99.9,30.32,South,170,0.0,0.0,-999,0.00,,,-99.99,perl,2013-05-02 08:12:00,
2013-05-02 04:18:00,57.4,-99.9,30.32,South,170,0.0,0.0,-999,0.00,,,-99.99,perl,2013-05-02 08:18:00,
2013-05-02 04:23:00,57.6,-99.9,30.32,South,170,0.0,0.0,-999,0.00,,,-99.99,perl,2013-05-02 08:23:00,
2013-05-02 04:28:00,57.7,-99.9,30.32,South,169,0.0,0.0,-999,0.00,,,-99.99,perl,2013-05-02 08:28:00,
2013-05-02 04:33:00,57.7,-99.9,30.32,SSE,168,0.0,0.0,-999,0.00,,,-99.99,perl,2013-05-02 08:33:00,
2013-05-02 04:38:00,57.4,-99.9,30.32,SSE,168,0.0,0.0,-999,0.00,,,-99.99,perl,2013-05-02 08:38:00,
2013-05-02 04:43:00,57.2,-99.9,30.32,SSE,168,0.0,0.0,-999,0.00,,,-99.99,perl,2013-05-02 08:43:00,
2013-05-02 04:48:00,57.0,-99.9,30.32,SSE,168,0.0,0.0,-999,0.00,,,-99.99,perl,2013-05-02 08:48:00,
2013-05-02 04:55:00,57.0,-99.9,30.32,SSE,168,0.0,0.0,-999,0.00,,,-99.99,perl,2013-05-02 08:55:00,
2013-05-02 05:01:00,57.0,-99.9,30.35,SSE,168,0.0,0.0,-999,0.00,,,-99.99,perl,2013-05-02 09:01:00,
2013-05-02 05:07:00,56.8,-99.9,30.35,SSE,168,0.0,0.0,-999,0.00,,,-99.99,perl,2013-05-02 09:07:00,
2013-05-02 05:13:00,56.8,-99.9,30.35,SSE,168,0.0,0.0,-999,0.00,,,-99.99,perl,2013-05-02 09:13:00,
2013-05-02 05:18:00,56.7,-99.9,30.35,South,170,0.0,0.0,-999,0.00,,,-99.99,perl,2013-05-02 09:18:00,
2013-05-02 05:23:00,56.7,-99.9,30.35,South,171,0.0,0.0,-999,0.00,,,-99.99,perl,2013-05-02 09:23:00,
2013-05-02 05:28:00,56.7,-99.9,30.35,South,171,0.0,0.0,-999,0.00,,,-99.99,perl,2013-05-02 09:28:00,
2013-05-02 05:33:00,56.3,-99.9,30.35,South,172,0.0,0.0,-999,0.00,,,-99.99,perl,2013-05-02 09:33:00,
2013-05-02 05:38:00,56.1,-99.9,30.35,South,171,0.0,0.0,-999,0.00,,,-99.99,perl,2013-05-02 09:38:00,
2013-05-02 05:43:00,55.9,-99.9,30.35,South,171,0.0,0.0,-999,0.00,,,-99.99,perl,2013-05-02 09:43:00,
2013-05-02 05:48:00,55.8,-99.9,30.35,South,170,0.0,0.0,-999,0.00,,,-99.99,perl,2013-05-02 09:48:00,
2013-05-02 05:53:00,55.4,-99.9,30.35,SSE,166,0.0,0.0,-999,0.00,,,-99.99,perl,2013-05-02 09:53:00,
2013-05-02 05:58:00,55.2,-99.9,30.35,SSE,166,0.0,0.0,-999,0.00,,,-99.99,perl,2013-05-02 09:58:00,
2013-05-02 06:03:00,55.0,-99.9,30.35,SSE,166,0.0,0.0,-999,0.00,,,-99.99,perl,2013-05-02 10:03:00,
2013-05-02 06:09:00,55.0,-99.9,30.35,SSE,166,0.0,0.0,-999,0.00,,,-99.99,perl,2013-05-02 10:09:00,
2013-05-02 06:14:00,55.0,-99.9,30.35,SSE,166,0.0,0.0,-999,0.00,,,-99.99,perl,2013-05-02 10:14:00,
2013-05-02 06:19:00,55.0,-99.9,30.35,SSE,167,0.0,0.0,-999,0.00,,,-99.99,perl,2013-05-02 10:19:00,
2013-05-02 06:24:00,54.9,-99.9,30.35,SSE,166,0.0,0.0,-999,0.00,,,-99.99,perl,2013-05-02 10:24:00,
2013-05-02 06:29:00,54.9,-99.9,30.35,SSE,166,0.0,0.0,-999,0.00,,,-99.99,perl,2013-05-02 10:29:00,
2013-05-02 06:34:00,54.7,-99.9,30.35,SSE,166,0.0,0.0,-999,0.00,,,-99.99,perl,2013-05-02 10:34:00,
2013-05-02 06:39:00,54.5,-99.9,30.35,SSE,166,0.0,0.0,-999,0.00,,,-99.99,perl,2013-05-02 10:39:00,
2013-05-02 06:44:00,54.5,-99.9,30.35,SSE,166,0.0,0.0,-999,0.00,,,-99.99,perl,2013-05-02 10:44:00,
2013-05-02 06:49:00,54.5,-99.9,30.35,SSE,166,0.0,0.0,-999,0.00,,,-99.99,perl,2013-05-02 10:49:00,
2013-05-02 06:54:00,54.7,-99.9,30.35,SSE,166,0.0,0.0,-999,0.00,,,-99.99,perl,2013-05-02 10:54:00,
2013-05-02 06:59:00,55.0,-99.9,30.35,SSE,167,0.0,0.0,-999,0.00,,,-99.99,perl,2013-05-02 10:59:00,
2013-05-02 07:04:00,55.4,-99.9,30.35,SSE,166,0.0,0.0,-999,0.00,,,-99.99,perl,2013-05-02 11:04:00,
2013-05-02 07:09:00,55.6,-99.9,30.35,SSE,166,0.0,0.0,-999,0.00,,,-99.99,perl,2013-05-02 11:09:00,
2013-05-02 07:14:00,55.8,-99.9,30.38,SSE,167,0.0,0.0,-999,0.00,,,-99.99,perl,2013-05-02 11:14:00,
2013-05-02 07:19:00,56.1,-99.9,30.38,SSE,166,0.0,0.0,-999,0.00,,,-99.99,perl,2013-05-02 11:19:00,
2013-05-02 07:24:00,56.8,-99.9,30.38,South,190,0.0,0.0,-999,0.00,,,-99.99,perl,2013-05-02 11:24:00,
2013-05-02 07:29:00,57.4,-99.9,30.38,South,179,0.0,0.0,-999,0.00,,,-99.99,perl,2013-05-02 11:29:00,
2013-05-02 07:34:00,58.1,-99.9,30.38,South,176,0.0,0.0,-999,0.00,,,-99.99,perl,2013-05-02 11:34:00,
2013-05-02 07:39:00,58.6,-99.9,30.38,South,171,0.0,0.0,-999,0.00,,,-99.99,perl,2013-05-02 11:39:00,
2013-05-02 07:44:00,59.4,-99.9,30.38,SSE,162,0.0,5.4,-999,0.00,,,-99.99,perl,2013-05-02 11:44:00,
2013-05-02 07:49:00,59.9,-99.9,30.38,SSE,159,2.3,0.0,-999,0.00,,,-99.99,perl,2013-05-02 11:49:00,
2013-05-02 07:54:00,60.3,-99.9,30.38,South,185,0.0,0.0,-999,0.00,,,-99.99,perl,2013-05-02 11:54:00,
2013-05-02 08:00:00,60.6,-99.9,30.38,SSW,196,0.0,0.0,-999,0.00,,,-99.99,perl,2013-05-02 12:00:00,
2013-05-02 08:05:00,60.6,-99.9,30.38,SW,219,0.0,4.9,-999,0.00,,,-99.99,perl,2013-05-02 12:05:00,
2013-05-02 08:10:00,61.0,-99.9,30.38,South,190,0.0,0.0,-999,0.00,,,-99.99,perl,2013-05-02 12:10:00,
2013-05-02 08:15:00,61.5,-99.9,30.41,SW,214,0.5,0.0,-999,0.00,,,-99.99,perl,2013-05-02 12:15:00,
2013-05-02 08:20:00,61.7,-99.9,30.41,SW,233,0.0,4.9,-999,0.00,,,-99.99,perl,2013-05-02 12:20:00,
2013-05-02 08:25:00,61.7,-99.9,30.41,WSW,258,3.1,3.1,-999,0.00,,,-99.99,perl,2013-05-02 12:25:00,
2013-05-02 08:30:00,61.9,-99.9,30.41,WSW,239,0.0,0.0,-999,0.00,,,-99.99,perl,2013-05-02 12:30:00,
2013-05-02 08:35:00,62.1,-99.9,30.41,WSW,256,3.8,4.0,-999,0.00,,,-99.99,perl,2013-05-02 12:35:00,
2013-05-02 08:40:00,62.2,-99.9,30.41,SW,227,0.7,5.8,-999,0.00,,,-99.99,perl,2013-05-02 12:40:00,
2013-05-02 08:45:00,62.6,-99.9,30.41,SW,229,1.8,3.1,-999,0.00,,,-99.99,perl,2013-05-02 12:45:00,
2013-05-02 08:50:00,63.3,-99.9,30.41,SSE,167,3.1,4.0,-999,0.00,,,-99.99,perl,2013-05-02 12:50:00,
2013-05-02 08:55:00,63.5,-99.9,30.41,SSW,208,0.6,3.1,-999,0.00,,,-99.99,perl,2013-05-02 12:55:00,
2013-05-02 09:00:00,63.9,-99.9,30.41,South,171,0.0,3.1,-999,0.00,,,-99.99,perl,2013-05-02 13:00:00,
2013-05-02 09:05:00,64.0,-99.9,30.41,SW,233,2.2,4.0,-999,0.00,,,-99.99,perl,2013-05-02 13:05:00,
2013-05-02 09:10:00,64.4,-99.9,30.41,SSW,196,0.6,0.0,-999,0.00,,,-99.99,perl,2013-05-02 13:10:00,
2013-05-02 09:15:00,64.9,-99.9,30.41,SSW,203,1.8,2.7,-999,0.00,,,-99.99,perl,2013-05-02 13:15:00,
2013-05-02 09:20:00,65.3,-99.9,30.41,South,171,0.7,4.0,-999,0.00,,,-99.99,perl,2013-05-02 13:20:00,
2013-05-02 09:25:00,66.0,-99.9,30.41,SSE,155,0.0,0.0,-999,0.00,,,-99.99,perl,2013-05-02 13:25:00,
2013-05-02 09:30:00,65.8,-99.9,30.41,SSE,153,1.0,5.4,-999,0.00,,,-99.99,perl,2013-05-02 13:30:00,
2013-05-02 09:35:00,65.8,-99.9,30.41,South,173,0.0,0.0,-999,0.00,,,-99.99,perl,2013-05-02 13:35:00,
2013-05-02 09:40:00,66.0,-99.9,30.41,SE,144,3.7,6.7,-999,0.00,,,-99.99,perl,2013-05-02 13:40:00,
2013-05-02 09:45:00,66.6,-99.9,30.41,SW,218,1.7,2.2,-999,0.00,,,-99.99,perl,2013-05-02 13:45:00,
2013-05-02 09:51:00,66.6,-99.9,30.41,SW,235,3.4,3.6,-999,0.00,,,-99.99,perl,2013-05-02 13:51:00,
2013-05-02 09:56:00,66.4,-99.9,30.41,SW,214,2.5,3.6,-999,0.00,,,-99.99,perl,2013-05-02 13:56:00,
2013-05-02 10:01:00,66.7,-99.9,30.41,WNW,282,3.0,4.0,-999,0.00,,,-99.99,perl,2013-05-02 14:01:00,
2013-05-02 10:06:00,67.1,-99.9,30.41,SW,214,0.0,0.0,-999,0.00,,,-99.99,perl,2013-05-02 14:06:00,
2013-05-02 10:11:00,67.3,-99.9,30.41,SW,234,2.8,5.8,-999,0.00,,,-99.99,perl,2013-05-02 14:11:00,
2013-05-02 10:16:00,67.6,-99.9,30.41,SSW,197,2.5,4.0,-999,0.00,,,-99.99,perl,2013-05-02 14:16:00,
2013-05-02 10:21:00,67.8,-99.9,30.41,SSE,161,3.5,3.6,-999,0.00,,,-99.99,perl,2013-05-02 14:21:00,
2013-05-02 10:26:00,67.8,-99.9,30.41,WSW,250,1.0,0.0,-999,0.00,,,-99.99,perl,2013-05-02 14:26:00,
2013-05-02 10:31:00,68.2,-99.9,30.41,ESE,112,0.0,0.0,-999,0.00,,,-99.99,perl,2013-05-02 14:31:00,
2013-05-02 10:36:00,69.1,-99.9,30.41,SW,227,0.0,3.6,-999,0.00,,,-99.99,perl,2013-05-02 14:36:00,
2013-05-02 10:41:00,69.1,-99.9,30.41,WSW,240,3.7,7.6,-999,0.00,,,-99.99,perl,2013-05-02 14:41:00,
2013-05-02 10:46:00,69.1,-99.9,30.41,West,279,0.8,5.4,-999,0.00,,,-99.99,perl,2013-05-02 14:46:00,
2013-05-02 10:51:00,69.4,-99.9,30.41,South,182,2.7,3.6,-999,0.00,,,-99.99,perl,2013-05-02 14:51:00,
2013-05-02 10:57:00,70.5,-99.9,30.41,SSE,156,1.7,4.0,-999,0.00,,,-99.99,perl,2013-05-02 14:57:00,
2013-05-02 11:02:00,70.7,-99.9,30.41,SSE,164,0.6,0.0,-999,0.00,,,-99.99,perl,2013-05-02 15:02:00,
2013-05-02 11:07:00,71.1,-99.9,30.41,WNW,303,1.0,0.0,-999,0.00,,,-99.99,perl,2013-05-02 15:07:00,
2013-05-02 11:12:00,71.2,-99.9,30.41,WNW,287,0.0,0.0,-999,0.00,,,-99.99,perl,2013-05-02 15:12:00,
2013-05-02 11:17:00,71.6,-99.9,30.41,West,265,3.2,3.2,-999,0.00,,,-99.99,perl,2013-05-02 15:17:00,
2013-05-02 11:22:00,71.4,-99.9,30.41,SW,233,3.7,5.8,-999,0.00,,,-99.99,perl,2013-05-02 15:22:00,
2013-05-02 11:27:00,71.6,-99.9,30.41,ESE,112,0.0,0.0,-999,0.00,,,-99.99,perl,2013-05-02 15:27:00,
2013-05-02 11:32:00,72.0,-99.9,30.38,SSW,195,3.7,6.3,-999,0.00,,,-99.99,perl,2013-05-02 15:32:00,
2013-05-02 11:37:00,72.0,-99.9,30.38,WNW,286,3.6,3.6,-999,0.00,,,-99.99,perl,2013-05-02 15:37:00,
2013-05-02 11:42:00,72.3,-99.9,30.38,SSE,148,0.0,0.0,-999,0.00,,,-99.99,perl,2013-05-02 15:42:00,
2013-05-02 11:47:00,72.7,32.0,30.38,WSW,241,2.4,3.1,22,0.00,,,-99.99,perl,2013-05-02 15:47:00,
2013-05-02 11:52:00,73.0,-99.9,30.38,SSW,207,3.8,4.9,-999,0.00,,,-99.99,perl,2013-05-02 15:52:00,
2013-05-02 11:57:00,73.2,-99.9,30.38,WSW,242,3.4,3.4,-999,0.00,,,-99.99,perl,2013-05-02 15:57:00,
2013-05-02 12:02:00,73.6,-99.9,30.38,South,170,2.6,2.7,-999,0.00,,,-99.99,perl,2013-05-02 16:02:00,
2013-05-02 12:07:00,73.9,-99.9,30.38,East,82,2.7,4.0,-999,0.00,,,-99.99,perl,2013-05-02 16:07:00,
2013-05-02 12:12:00,74.1,-99.9,30.38,ESE,122,0.0,3.6,-999,0.00,,,-99.99,perl,2013-05-02 16:12:00,
2013-05-02 12:17:00,74.7,-99.9,30.38,East,94,0.0,0.0,-999,0.00,,,-99.99,perl,2013-05-02 16:17:00,
2013-05-02 12:22:00,75.4,-99.9,30.38,SE,124,0.0,0.0,-999,0.00,,,-99.99,perl,2013-05-02 16:22:00,
2013-05-02 12:27:00,75.0,-99.9,30.38,SE,135,2.7,4.9,-999,0.00,,,-99.99,perl,2013-05-02 16:27:00,
2013-05-02 12:32:00,74.7,-99.9,30.38,ENE,57,3.5,4.0,-999,0.00,,,-99.99,perl,2013-05-02 16:32:00,
2013-05-02 12:37:00,74.1,-99.9,30.38,SSW,210,0.6,3.1,-999,0.00,,,-99.99,perl,2013-05-02 16:37:00,
2013-05-02 12:42:00,74.7,-99.9,30.38,WSW,257,2.9,3.1,-999,0.00,,,-99.99,perl,2013-05-02 16:42:00,
2013-05-02 12:47:00,75.2,-99.9,30.38,West,278,0.0,4.9,-999,0.00,,,-99.99,perl,2013-05-02 16:47:00,
2013-05-02 12:52:00,74.8,-99.9,30.38,WSW,250,3.9,3.9,-999,0.00,,,-99.99,perl,2013-05-02 16:52:00,
2013-05-02 12:57:00,75.9,-99.9,30.38,SSW,202,0.0,2.7,-999,0.00,,,-99.99,perl,2013-05-02 16:57:00,
2013-05-02 13:02:00,76.6,-99.9,30.35,South,187,0.0,0.0,-999,0.00,,,-99.99,perl,2013-05-02 17:02:00,
2013-05-02 13:07:00,77.2,-99.9,30.35,East,97,2.2,3.1,-999,0.00,,,-99.99,perl,2013-05-02 17:07:00,
2013-05-02 13:12:00,76.6,-99.9,30.35,NE,49,2.5,4.0,-999,0.00,,,-99.99,perl,2013-05-02 17:12:00,
2013-05-02 13:17:00,75.6,-99.9,30.35,WSW,258,3.9,4.9,-999,0.00,,,-99.99,perl,2013-05-02 17:17:00,
2013-05-02 13:22:00,75.2,32.0,30.35,WSW,254,2.5,5.4,21,0.00,,,-99.99,perl,2013-05-02 17:22:00,
2013-05-02 13:27:00,75.2,32.0,30.35,NE,35,4.3,6.3,21,0.00,,,-99.99,perl,2013-05-02 17:27:00,
2013-05-02 13:33:00,74.8,-99.9,30.35,SE,124,3.8,4.0,-999,0.00,,,-99.99,perl,2013-05-02 17:33:00,
2013-05-02 13:38:00,75.4,32.0,30.35,SE,124,0.0,2.7,20,0.00,,,-99.99,perl,2013-05-02 17:38:00,
2013-05-02 13:43:00,75.6,-99.9,30.35,NNE,23,3.2,4.0,-999,0.00,,,-99.99,perl,2013-05-02 17:43:00,
2013-05-02 13:48:00,75.4,32.0,30.35,East,100,2.3,3.6,20,0.00,,,-99.99,perl,2013-05-02 17:48:00,
2013-05-02 13:54:00,75.6,-99.9,30.35,NE,42,2.5,3.6,-999,0.00,,,-99.99,perl,2013-05-02 17:54:00,
2013-05-02 13:59:00,75.4,32.0,30.35,ESE,109,0.0,0.0,20,0.00,,,-99.99,perl,2013-05-02 17:59:00,
2013-05-02 14:04:00,75.9,32.0,30.35,NE,34,0.0,0.0,20,0.00,,,-99.99,perl,2013-05-02 18:04:00,
2013-05-02 14:10:00,75.7,32.0,30.35,ESE,115,4.1,4.1,20,0.00,,,-99.99,perl,2013-05-02 18:10:00,
2013-05-02 14:15:00,75.2,32.0,30.35,West,275,1.8,4.9,21,0.00,,,-99.99,perl,2013-05-02 18:15:00,
2013-05-02 14:20:00,75.0,32.0,30.35,East,90,0.8,2.7,21,0.00,,,-99.99,perl,2013-05-02 18:20:00,
2013-05-02 14:25:00,75.0,32.0,30.35,SSW,194,0.0,3.6,21,0.00,,,-99.99,perl,2013-05-02 18:25:00,
2013-05-02 14:30:00,75.2,32.0,30.32,NNE,30,0.7,3.6,21,0.00,,,-99.99,perl,2013-05-02 18:30:00,
2013-05-02 14:35:00,74.7,32.0,30.32,NE,56,3.4,5.8,21,0.00,,,-99.99,perl,2013-05-02 18:35:00,
2013-05-02 14:40:00,74.5,32.0,30.32,South,182,0.0,4.9,21,0.00,,,-99.99,perl,2013-05-02 18:40:00,
2013-05-02 14:45:00,74.1,32.0,30.32,SE,124,3.1,4.0,21,0.00,,,-99.99,perl,2013-05-02 18:45:00,
2013-05-02 14:50:00,73.6,32.0,30.32,NNE,14,3.0,3.6,22,0.00,,,-99.99,perl,2013-05-02 18:50:00,
2013-05-02 14:55:00,73.8,32.0,30.32,SSW,198,3.0,4.0,22,0.00,,,-99.99,perl,2013-05-02 18:55:00,
2013-05-02 15:00:00,73.6,32.0,30.32,South,189,4.5,5.4,22,0.00,,,-99.99,perl,2013-05-02 19:00:00,
2013-05-02 15:05:00,73.0,32.0,30.32,SSW,192,3.7,6.3,22,0.00,,,-99.99,perl,2013-05-02 19:05:00,
2013-05-02 15:10:00,73.0,32.0,30.32,SSW,212,0.0,2.2,22,0.00,,,-99.99,perl,2013-05-02 19:10:00,
2013-05-02 15:15:00,73.6,32.0,30.32,WSW,252,0.0,3.6,22,0.00,,,-99.99,perl,2013-05-02 19:15:00,
2013-05-02 15:20:00,73.6,32.0,30.32,West,280,2.2,3.6,22,0.00,,,-99.99,perl,2013-05-02 19:20:00,
2013-05-02 15:25:00,73.8,32.0,30.32,NNE,25,2.8,4.0,22,0.00,,,-99.99,perl,2013-05-02 19:25:00,
2013-05-02 15:30:00,73.8,32.0,30.32,South,181,0.6,3.6,22,0.00,,,-99.99,perl,2013-05-02 19:30:00,
2013-05-02 15:35:00,73.6,32.0,30.32,South,181,0.7,5.4,22,0.00,,,-99.99,perl,2013-05-02 19:35:00,
2013-05-02 15:40:00,73.2,32.0,30.32,East,97,2.6,3.1,22,0.00,,,-99.99,perl,2013-05-02 19:40:00,
2013-05-02 15:45:00,73.2,32.0,30.32,NNE,23,3.1,4.0,22,0.00,,,-99.99,perl,2013-05-02 19:45:00,
2013-05-02 15:50:00,72.9,-99.9,30.32,NE,34,3.7,5.8,-999,0.00,,,-99.99,perl,2013-05-02 19:50:00,
2013-05-02 15:55:00,72.1,-99.9,30.32,NE,42,4.0,4.0,-999,0.00,,,-99.99,perl,2013-05-02 19:55:00,
2013-05-02 16:01:00,71.6,-99.9,30.32,NE,42,3.4,5.8,-999,0.00,,,-99.99,perl,2013-05-02 20:01:00,
2013-05-02 16:06:00,71.6,-99.9,30.32,East,90,3.5,3.6,-999,0.00,,,-99.99,perl,2013-05-02 20:06:00,
2013-05-02 16:11:00,72.1,-99.9,30.32,SSE,154,1.8,4.0,-999,0.00,,,-99.99,perl,2013-05-02 20:11:00,
2013-05-02 16:16:00,72.1,-99.9,30.29,NE,46,4.4,6.3,-999,0.00,,,-99.99,perl,2013-05-02 20:16:00,
2013-05-02 16:21:00,71.1,-99.9,30.29,WNW,286,2.5,5.4,-999,0.00,,,-99.99,perl,2013-05-02 20:21:00,
2013-05-02 16:26:00,71.1,-99.9,30.29,WSW,245,2.7,2.7,-999,0.00,,,-99.99,perl,2013-05-02 20:26:00,
2013-05-02 16:31:00,71.2,-99.9,30.29,SW,231,3.1,3.6,-999,0.00,,,-99.99,perl,2013-05-02 20:31:00,
2013-05-02 16:36:00,71.6,-99.9,30.29,SSW,194,0.0,5.4,-999,0.00,,,-99.99,perl,2013-05-02 20:36:00,
2013-05-02 16:41:00,71.6,-99.9,30.29,South,189,3.9,5.4,-999,0.00,,,-99.99,perl,2013-05-02 20:41:00,
2013-05-02 16:46:00,71.2,-99.9,30.29,SE,136,2.2,5.8,-999,0.00,,,-99.99,perl,2013-05-02 20:46:00,
2013-05-02 16:51:00,71.1,-99.9,30.29,East,96,4.3,4.9,-999,0.00,,,-99.99,perl,2013-05-02 20:51:00,
2013-05-02 16:56:00,70.9,-99.9,30.29,NNE,30,0.6,2.7,-999,0.00,,,-99.99,perl,2013-05-02 20:56:00,
2013-05-02 17:01:00,70.7,-99.9,30.29,ESE,110,0.8,4.0,-999,0.00,,,-99.99,perl,2013-05-02 21:01:00,
2013-05-02 17:06:00,70.3,-99.9,30.29,WSW,239,2.8,2.8,-999,0.00,,,-99.99,perl,2013-05-02 21:06:00,
2013-05-02 17:11:00,70.3,-99.9,30.29,East,87,2.7,2.7,-999,0.00,,,-99.99,perl,2013-05-02 21:11:00,
2013-05-02 17:16:00,70.0,-99.9,30.29,NE,41,4.1,4.1,-999,0.00,,,-99.99,perl,2013-05-02 21:16:00,
2013-05-02 17:21:00,70.2,-99.9,30.29,NNW,334,0.5,0.0,-999,0.00,,,-99.99,perl,2013-05-02 21:21:00,
2013-05-02 17:26:00,70.3,-99.9,30.29,NE,40,4.0,6.3,-999,0.00,,,-99.99,perl,2013-05-02 21:26:00,
2013-05-02 17:31:00,70.2,-99.9,30.26,SSW,204,1.8,4.0,-999,0.00,,,-99.99,perl,2013-05-02 21:31:00,
2013-05-02 17:36:00,70.3,-99.9,30.26,WSW,252,2.7,0.0,-999,0.00,,,-99.99,perl,2013-05-02 21:36:00,
2013-05-02 17:41:00,70.2,-99.9,30.26,NNW,333,0.7,0.0,-999,0.00,,,-99.99,perl,2013-05-02 21:41:00,
2013-05-02 17:46:00,70.2,-99.9,30.26,NNE,18,1.5,2.7,-999,0.00,,,-99.99,perl,2013-05-02 21:46:00,
2013-05-02 17:52:00,70.2,-99.9,30.26,WNW,285,0.0,3.1,-999,0.00,,,-99.99,perl,2013-05-02 21:52:00,
2013-05-02 17:57:00,70.5,-99.9,30.26,WSW,253,0.0,0.0,-999,0.00,,,-99.99,perl,2013-05-02 21:57:00,
2013-05-02 18:02:00,70.5,-99.9,30.26,West,280,2.9,4.9,-999,0.00,,,-99.99,perl,2013-05-02 22:02:00,
2013-05-02 18:07:00,70.2,-99.9,30.26,SSW,209,0.0,0.0,-999,0.00,,,-99.99,perl,2013-05-02 22:07:00,
2013-05-02 18:12:00,70.2,-99.9,30.26,NE,34,0.0,0.0,-999,0.00,,,-99.99,perl,2013-05-02 22:12:00,
2013-05-02 18:17:00,70.2,-99.9,30.26,NE,52,0.0,0.0,-999,0.00,,,-99.99,perl,2013-05-02 22:17:00,
2013-05-02 18:22:00,70.2,-99.9,30.26,North,1,0.0,0.0,-999,0.00,,,-99.99,perl,2013-05-02 22:22:00,
2013-05-02 18:27:00,70.3,-99.9,30.26,SW,214,0.0,0.0,-999,0.00,,,-99.99,perl,2013-05-02 22:27:00,
2013-05-02 18:32:00,70.5,-99.9,30.26,NNW,343,0.0,0.0,-999,0.00,,,-99.99,perl,2013-05-02 22:32:00,
2013-05-02 18:37:00,70.5,-99.9,30.26,NNW,344,0.0,0.0,-999,0.00,,,-99.99,perl,2013-05-02 22:37:00,
2013-05-02 18:42:00,70.5,-99.9,30.26,West,268,0.0,0.0,-999,0.00,,,-99.99,perl,2013-05-02 22:42:00,
2013-05-02 18:47:00,70.5,-99.9,30.26,East,89,0.0,0.0,-999,0.00,,,-99.99,perl,2013-05-02 22:47:00,
2013-05-02 18:52:00,70.5,-99.9,30.26,NNE,13,0.0,0.0,-999,0.00,,,-99.99,perl,2013-05-02 22:52:00,
2013-05-02 18:58:00,70.7,-99.9,30.26,NE,35,0.0,3.1,-999,0.00,,,-99.99,perl,2013-05-02 22:58:00,
2013-05-02 19:03:00,71.1,-99.9,30.26,NNE,24,0.0,0.0,-999,0.00,,,-99.99,perl,2013-05-02 23:03:00,
2013-05-02 19:08:00,71.2,-99.9,30.26,NE,47,0.0,0.0,-999,0.00,,,-99.99,perl,2013-05-02 23:08:00,
2013-05-02 19:13:00,71.4,-99.9,30.26,NNE,30,0.0,0.0,-999,0.00,,,-99.99,perl,2013-05-02 23:13:00,
2013-05-02 19:18:00,71.4,-99.9,30.26,East,92,0.0,0.0,-999,0.00,,,-99.99,perl,2013-05-02 23:18:00,
2013-05-02 19:23:00,71.4,-99.9,30.26,NE,56,0.0,0.0,-999,0.00,,,-99.99,perl,2013-05-02 23:23:00,
2013-05-02 19:28:00,71.2,-99.9,30.26,NE,34,0.0,0.0,-999,0.00,,,-99.99,perl,2013-05-02 23:28:00,
2013-05-02 19:33:00,71.1,-99.9,30.23,ENE,73,0.0,0.0,-999,0.00,,,-99.99,perl,2013-05-02 23:33:00,
2013-05-02 19:38:00,70.9,-99.9,30.23,ENE,72,0.0,0.0,-999,0.00,,,-99.99,perl,2013-05-02 23:38:00,
2013-05-02 19:43:00,70.7,-99.9,30.23,ENE,69,0.0,0.0,-999,0.00,,,-99.99,perl,2013-05-02 23:43:00,
2013-05-02 19:48:00,70.5,-99.9,30.26,NE,44,0.0,0.0,-999,0.00,,,-99.99,perl,2013-05-02 23:48:00,
2013-05-02 19:53:00,70.3,-99.9,30.26,East,87,0.0,0.0,-999,0.00,,,-99.99,perl,2013-05-02 23:53:00,
2013-05-02 19:58:00,70.2,-99.9,30.26,NE,56,1.8,4.0,-999,0.00,,,-99.99,perl,2013-05-02 23:58:00,
2013-05-02 20:03:00,70.2,-99.9,30.26,ENE,71,0.0,0.0,-999,0.00,,,-99.99,perl,2013-05-03 00:03:00,
2013-05-02 20:08:00,70.0,-99.9,30.26,ENE,61,0.7,0.0,-999,0.00,,,-99.99,perl,2013-05-03 00:08:00,
2013-05-02 20:13:00,69.8,-99.9,30.26,ENE,77,0.0,0.0,-999,0.00,,,-99.99,perl,2013-05-03 00:13:00,
2013-05-02 20:18:00,69.4,-99.9,30.26,NE,56,0.0,0.0,-999,0.00,,,-99.99,perl,2013-05-03 00:18:00,
2013-05-02 20:24:00,69.3,-99.9,30.26,East,90,0.0,0.0,-999,0.00,,,-99.99,perl,2013-05-03 00:24:00,
2013-05-02 20:29:00,68.9,-99.9,30.26,East,101,0.0,0.0,-999,0.00,,,-99.99,perl,2013-05-03 00:29:00,
2013-05-02 20:34:00,68.7,-99.9,30.26,East,89,0.0,0.0,-999,0.00,,,-99.99,perl,2013-05-03 00:34:00,
2013-05-02 20:39:00,68.4,-99.9,30.26,East,87,0.0,0.0,-999,0.00,,,-99.99,perl,2013-05-03 00:39:00,
2013-05-02 20:44:00,68.2,-99.9,30.26,East,94,3.1,3.1,-999,0.00,,,-99.99,perl,2013-05-03 00:44:00,
2013-05-02 20:49:00,67.8,-99.9,30.26,ESE,114,2.6,3.1,-999,0.00,,,-99.99,perl,2013-05-03 00:49:00,
2013-05-02 20:54:00,67.5,-99.9,30.26,East,91,0.0,0.0,-999,0.00,,,-99.99,perl,2013-05-03 00:54:00,
2013-05-02 20:59:00,67.3,-99.9,30.26,East,84,2.2,3.6,-999,0.00,,,-99.99,perl,2013-05-03 00:59:00,
2013-05-02 21:04:00,66.9,-99.9,30.26,East,82,0.0,0.0,-999,0.00,,,-99.99,perl,2013-05-03 01:04:00,
2013-05-02 21:09:00,66.6,-99.9,30.26,ESE,123,0.0,0.0,-999,0.00,,,-99.99,perl,2013-05-03 01:09:00,
2013-05-02 21:14:00,66.2,-99.9,30.26,ESE,105,0.0,0.0,-999,0.00,,,-99.99,perl,2013-05-03 01:14:00,
2013-05-02 21:19:00,66.0,-99.9,30.26,ESE,115,0.0,0.0,-999,0.00,,,-99.99,perl,2013-05-03 01:19:00,
2013-05-02 21:24:00,65.7,-99.9,30.26,ESE,103,2.6,2.7,-999,0.00,,,-99.99,perl,2013-05-03 01:24:00,
2013-05-02 21:29:00,65.5,-99.9,30.26,ESE,109,2.3,5.8,-999,0.00,,,-99.99,perl,2013-05-03 01:29:00,
2013-05-02 21:34:00,65.5,-99.9,30.26,SE,128,0.6,0.0,-999,0.00,,,-99.99,perl,2013-05-03 01:34:00,
2013-05-02 21:39:00,65.3,-99.9,30.26,East,88,2.2,4.0,-999,0.00,,,-99.99,perl,2013-05-03 01:39:00,
2013-05-02 21:44:00,64.9,-99.9,30.26,SE,129,1.7,5.4,-999,0.00,,,-99.99,perl,2013-05-03 01:44:00,
2013-05-02 21:49:00,64.8,-99.9,30.26,East,101,2.9,5.4,-999,0.00,,,-99.99,perl,2013-05-03 01:49:00,
2013-05-02 21:54:00,64.6,-99.9,30.26,ESE,105,3.0,4.0,-999,0.00,,,-99.99,perl,2013-05-03 01:54:00,
2013-05-02 21:59:00,64.6,-99.9,30.26,East,96,3.6,5.8,-999,0.00,,,-99.99,perl,2013-05-03 01:59:00,
2013-05-02 22:04:00,64.4,-99.9,30.26,SE,139,2.9,3.1,-999,0.00,,,-99.99,perl,2013-05-03 02:04:00,
2013-05-02 22:09:00,64.4,-99.9,30.26,East,91,0.0,0.0,-999,0.00,,,-99.99,perl,2013-05-03 02:09:00,
2013-05-02 22:14:00,64.0,-99.9,30.26,East,99,0.0,0.0,-999,0.00,,,-99.99,perl,2013-05-03 02:14:00,
2013-05-02 22:19:00,64.0,-99.9,30.26,East,89,0.0,0.0,-999,0.00,,,-99.99,perl,2013-05-03 02:19:00,
2013-05-02 22:24:00,63.9,-99.9,30.26,ESE,118,0.0,2.7,-999,0.00,,,-99.99,perl,2013-05-03 02:24:00,
2013-05-02 22:29:00,63.9,-99.9,30.26,East,96,0.4,2.2,-999,0.00,,,-99.99,perl,2013-05-03 02:29:00,
2013-05-02 22:34:00,63.5,-99.9,30.26,ESE,115,0.0,0.0,-999,0.00,,,-99.99,perl,2013-05-03 02:34:00,
2013-05-02 22:40:00,63.5,-99.9,30.26,East,98,0.0,0.0,-999,0.00,,,-99.99,perl,2013-05-03 02:40:00,
2013-05-02 22:45:00,63.1,-99.9,30.26,ESE,112,0.0,5.4,-999,0.00,,,-99.99,perl,2013-05-03 02:45:00,
2013-05-02 22:50:00,63.3,-99.9,30.26,SE,143,0.0,2.2,-999,0.00,,,-99.99,perl,2013-05-03 02:50:00,
2013-05-02 22:55:00,63.1,-99.9,30.26,ESE,109,0.0,0.0,-999,0.00,,,-99.99,perl,2013-05-03 02:55:00,
2013-05-02 23:00:00,63.1,-99.9,30.26,ESE,112,0.0,0.0,-999,0.00,,,-99.99,perl,2013-05-03 03:00:00,
2013-05-02 23:05:00,63.3,-99.9,30.26,East,100,0.0,0.0,-999,0.00,,,-99.99,perl,2013-05-03 03:05:00,
2013-05-02 23:10:00,63.3,-99.9,30.26,SE,145,0.0,0.0,-999,0.00,,,-99.99,perl,2013-05-03 03:10:00,
2013-05-02 23:15:00,63.1,-99.9,30.26,SE,131,0.0,0.0,-999,0.00,,,-99.99,perl,2013-05-03 03:15:00,
2013-05-02 23:20:00,63.0,-99.9,30.26,SE,132,0.0,0.0,-999,0.00,,,-99.99,perl,2013-05-03 03:20:00,
2013-05-02 23:25:00,62.8,-99.9,30.26,SE,132,0.0,0.0,-999,0.00,,,-99.99,perl,2013-05-03 03:25:00,
2013-05-02 23:30:00,62.2,-99.9,30.26,SE,133,0.0,0.0,-999,0.00,,,-99.99,perl,2013-05-03 03:30:00,
2013-05-02 23:35:00,61.9,-99.9,30.26,SE,131,0.0,0.0,-999,0.00,,,-99.99,perl,2013-05-03 03:35:00,
2013-05-02 23:40:00,61.7,-99.9,30.26,SE,132,0.0,0.0,-999,0.00,,,-99.99,perl,2013-05-03 03:40:00,
2013-05-02 23:45:00,61.3,-99.9,30.26,SE,132,0.0,0.0,-999,0.00,,,-99.99,perl,2013-05-03 03:45:00,
2013-05-02 23:50:00,61.0,-99.9,30.26,SE,132,0.0,0.0,-999,0.00,,,-99.99,perl,2013-05-03 03:50:00,
2013-05-02 23:55:00,61.0,-99.9,30.26,SE,132,0.0,0.0,-999,0.00,,,-99.99,perl,2013-05-03 03:55:00,